TimeSAST,TemperatureF,Dew PointF,Humidity,Sea Level PressureIn,VisibilityMPH,Wind Direction,Wind SpeedMPH,Gust SpeedMPH,PrecipitationIn,Events,Conditions,WindDirDegrees,DateUTC
12:00 AM,80.6,42.8,26,29.98,-9999.0,SW,9.2,-,N/A,,Unknown,220,2013-01-29 22:00:00
1:00 AM,78.8,37.4,23,29.95,-9999.0,SW,9.2,-,N/A,,Clear,230,2013-01-29 23:00:00
2:00 AM,78,36,13,,25,WSW,10.4,,,,Partly Cloudy,240,2013-01-30 00:00:00
2:00 AM,77.0,35.6,22,29.98,-9999.0,WSW,10.4,-,N/A,,Clear,240,2013-01-30 00:00:00
3:00 AM,73.4,35.6,25,29.95,-9999.0,SW,8.1,-,N/A,,Clear,220,2013-01-30 01:00:00
4:00 AM,69.8,33.8,27,29.95,-9999.0,SW,4.6,-,N/A,,Clear,220,2013-01-30 02:00:00
5:00 AM,69,34,17,,25,Calm,Calm,,,,,,2013-01-30 03:00:00
5:00 AM,68.0,33.8,28,29.95,-9999.0,SSW,1.2,-,N/A,,Clear,210,2013-01-30 03:00:00
6:00 AM,64.4,33.8,32,29.98,-9999.0,East,3.5,-,N/A,,Clear,90,2013-01-30 04:00:00
7:00 AM,69.8,35.6,28,29.98,-9999.0,North,1.2,-,N/A,,Clear,360,2013-01-30 05:00:00
7:16 AM,73.4,33.8,23,29.98,-9999.0,Calm,Calm,-,N/A,,Clear,0,2013-01-30 05:16:00
8:00 AM,76,37,15,,25,South,4.6,,,,,180,2013-01-30 06:00:00
8:00 AM,75.2,35.6,24,29.98,-9999.0,South,3.5,-,N/A,,Clear,180,2013-01-30 06:00:00
9:00 AM,78.8,35.6,21,29.98,-9999.0,South,3.5,-,N/A,,Clear,170,2013-01-30 07:00:00
10:00 AM,82.4,33.8,17,29.98,-9999.0,SSE,3.5,-,N/A,,Clear,160,2013-01-30 08:00:00
11:00 AM,83,28,7,,16,WSW,3.5,,,,Haze,240,2013-01-30 09:00:00
11:00 AM,82.4,28.4,14,29.98,-9999.0,WSW,3.5,-,N/A,,Clear,240,2013-01-30 09:00:00
12:00 PM,87.8,28.4,12,29.98,-9999.0,WNW,2.3,-,N/A,,Clear,300,2013-01-30 10:00:00
1:00 PM,91.4,26.6,10,29.95,-9999.0,SW,8.1,-,N/A,,Clear,230,2013-01-30 11:00:00
2:00 PM,94,25,4,,16,SW,11.5,,,,Haze,220,2013-01-30 12:00:00
3:00 PM,96.8,12.2,4,29.92,-9999.0,WSW,9.2,-,N/A,,Clear,240,2013-01-30 13:00:00
4:00 PM,93.2,3.2,4,29.92,-9999.0,WSW,10.4,-,N/A,,Clear,240,2013-01-30 14:00:00
5:00 PM,96,4,4,,25,WSW,11.5,,,,,240,2013-01-30 15:00:00
5:00 PM,95.0,5.0,4,29.89,-9999.0,WSW,10.4,-,N/A,,Clear,240,2013-01-30 15:00:00
6:00 PM,93.2,14.0,5,29.92,-9999.0,SSW,12.7,-,N/A,,Clear,200,2013-01-30 16:00:00
7:00 PM,91.4,12.2,5,29.89,-9999.0,SSW,9.2,-,N/A,,Clear,200,2013-01-30 17:00:00
8:00 PM,85,11,4,,25,SW,4.6,,,,,230,2013-01-30 18:00:00
8:00 PM,84.2,12.2,7,29.92,-9999.0,SW,3.5,-,N/A,,Clear,230,2013-01-30 18:00:00
9:00 PM,80.6,14.0,8,29.92,-9999.0,SW,3.5,-,N/A,,Unknown,230,2013-01-30 19:00:00
10:00 PM,75.2,14.0,10,29.92,-9999.0,WNW,4.6,-,N/A,,Unknown,300,2013-01-30 20:00:00
11:00 PM,79,16,4,,,West,9.2,,,,,270,2013-01-30 21:00:00
11:00 PM,78.8,15.8,9,29.95,-9999.0,West,8.1,-,N/A,,Unknown,270,2013-01-30 21:00:00